Weather History for KUUU - April, 2013

Change the Weather History Date:

Monday, April 1, 2013

  Actual Average Record
Temperature  
Mean Temperature 44 °F -  
Max Temperature 52 °F 50 °F 63 °F (1999)
Min Temperature 36 °F 35 °F 23 °F (1969)
Degree Days  
Heating Degree Days 21    
Moisture  
Dew Point 39 °F    
Average Humidity 80    
Maximum Humidity 100    
Minimum Humidity 42    
Precipitation  
Precipitation 0.08 in - - ()
Sea Level Pressure  
Sea Level Pressure 29.65 in    
Wind  
Wind Speed 12 mph (WSW)    
Max Wind Speed 21 mph    
Max Gust Speed 31 mph    
Visibility 7 miles    
Events Fog , Rain    
Averages and records for this station are not official NWS values.
T = Trace of Precipitation, MM = Missing Value Source: NWS Daily Summary

Daily Weather History Graph

Daily Weather History Graph

Search for Another Location

Airport or City:

Trip Planner

Search our weather history database for the weather conditions in past years. The results will help you decide how hot, cold, wet, or windy it might be!

Date:

Astronomy

Apr. 01, 2013 Rise Set
Actual Time 6:27 AM EDT 7:10 PM EDT
Civil Twilight 5:59 AM EDT 7:38 PM EDT
Nautical Twilight 5:26 AM EDT 8:11 PM EDT
Astronomical Twilight 4:52 AM EDT 8:46 PM EDT
Moon 12:18 AM EDT (4/1) 10:08 AM EDT (4/1)
Length of Visible Light 13h 38m
Length of Day
12h 42m
Waning Gibbous, 67% of the Moon is Illuminated
Apr 1
Waning Gibbous
Apr 3
Last Quarter
Apr 10
New
Apr 18
First Quarter
Apr 25
Full

Hourly Weather History & Observations

Time (EDT) Temp. Windchill Dew Point Humidity Pressure Visibility Wind Dir Wind Speed Gust Speed Precip Events Conditions
12:53 AM 45.0 °F 37.4 °F 43.0 °F 93% 29.64 in 4.0 mi SE 18.4 mph 28.8 mph 0.05 in Rain Rain
1:06 AM 44.6 °F 37.8 °F 42.8 °F 93% 29.63 in 3.0 mi SE 15.0 mph 25.3 mph 0.02 in Rain Light Rain
2:00 AM 46.4 °F 39.2 °F 44.6 °F 93% 29.59 in 2.5 mi South 18.4 mph - 0.00 in Rain Light Rain
2:11 AM 44.6 °F 38.1 °F 44.6 °F 100% 29.58 in 1.0 mi South 13.8 mph 20.7 mph 0.00 in Rain Light Rain
2:21 AM 44.6 °F 38.8 °F 44.6 °F 100% 29.58 in 0.5 mi South 11.5 mph 23.0 mph 0.00 in Fog Fog
2:53 AM 44.1 °F 39.5 °F 43.0 °F 96% 29.57 in 0.2 mi SW 8.1 mph 17.3 mph 0.00 in Fog Fog
4:01 AM 44.6 °F 42.2 °F 44.6 °F 100% 29.58 in 2.0 mi SW 4.6 mph - N/A   Overcast
4:10 AM 44.6 °F 41.4 °F 44.6 °F 100% 29.58 in 4.0 mi Variable 5.8 mph - N/A   Overcast
4:23 AM 44.6 °F 42.2 °F 44.6 °F 100% 29.59 in 5.0 mi Variable 4.6 mph - N/A   Overcast
5:02 AM 46.4 °F 41.9 °F 42.8 °F 87% 29.60 in 10.0 mi West 9.2 mph 19.6 mph N/A   Overcast
5:53 AM 45.0 °F 38.9 °F 41.0 °F 86% 29.62 in 10.0 mi West 12.7 mph - N/A   Mostly Cloudy
6:34 AM 44.6 °F 39.7 °F 39.2 °F 81% 29.62 in 10.0 mi WNW 9.2 mph - N/A   Mostly Cloudy
6:45 AM 44.6 °F 40.7 °F 39.2 °F 81% 29.63 in 10.0 mi WNW 6.9 mph 16.1 mph N/A   Scattered Clouds
6:53 AM 44.1 °F 41.5 °F 39.9 °F 85% 29.64 in 10.0 mi West 4.6 mph - N/A   Scattered Clouds
7:09 AM 44.6 °F 40.2 °F 39.2 °F 81% 29.65 in 10.0 mi West 8.1 mph - N/A   Mostly Cloudy
7:45 AM 44.6 °F 41.4 °F 39.2 °F 81% 29.66 in 10.0 mi West 5.8 mph - N/A   Overcast
7:53 AM 45.0 °F 41.8 °F 39.9 °F 82% 29.67 in 10.0 mi West 5.8 mph - N/A   Overcast
8:18 AM 46.4 °F 42.9 °F 39.2 °F 76% 29.66 in 10.0 mi West 6.9 mph - N/A   Scattered Clouds
8:53 AM 48.0 °F - 39.9 °F 74% 29.66 in 10.0 mi Variable 4.6 mph - N/A   Clear
9:53 AM 50.0 °F - 41.0 °F 71% 29.66 in 10.0 mi West 5.8 mph - N/A   Clear
10:53 AM 50.0 °F - 42.1 °F 74% 29.67 in 10.0 mi SSW 12.7 mph 18.4 mph N/A   Clear
11:53 AM 48.9 °F - 42.1 °F 77% 29.66 in 10.0 mi South 12.7 mph 23.0 mph N/A   Partly Cloudy
12:09 PM 48.2 °F - 42.8 °F 82% 29.66 in 9.0 mi SSW 13.8 mph 24.2 mph N/A   Partly Cloudy
12:53 PM 51.1 °F - 43.0 °F 74% 29.65 in 10.0 mi SSW 13.8 mph 20.7 mph N/A   Clear
1:53 PM 48.9 °F - 42.1 °F 77% 29.63 in 7.0 mi SSW 15.0 mph 24.2 mph N/A   Clear
2:22 PM 48.2 °F - 42.8 °F 82% 29.62 in 6.0 mi SW 13.8 mph 21.9 mph N/A   Haze
2:53 PM 48.9 °F - 42.1 °F 77% 29.61 in 8.0 mi SSW 15.0 mph 24.2 mph N/A   Clear
3:53 PM 50.0 °F - 41.0 °F 71% 29.58 in 9.0 mi SSW 16.1 mph 24.2 mph N/A   Clear
4:53 PM 46.9 °F - 39.9 °F 77% 29.60 in 9.0 mi SSW 13.8 mph 25.3 mph N/A   Mostly Cloudy
5:53 PM 48.0 °F - 42.1 °F 80% 29.62 in 5.0 mi SW 4.6 mph - 0.00 in Rain Light Rain
6:14 PM 48.2 °F - 42.8 °F 82% 29.63 in 9.0 mi NW 8.1 mph - 0.00 in Rain Light Rain
6:27 PM 44.6 °F 37.8 °F 39.2 °F 81% 29.66 in 2.5 mi NW 15.0 mph 31.1 mph 0.03 in Rain Rain
6:30 PM 42.8 °F 35.1 °F 39.2 °F 87% 29.66 in 3.0 mi NW 16.1 mph 27.6 mph 0.03 in Rain Rain
6:53 PM 41.0 °F 35.2 °F 36.0 °F 82% 29.68 in 5.0 mi NW 9.2 mph 23.0 mph 0.03 in Rain Light Rain
7:53 PM 39.9 °F 32.5 °F 30.9 °F 70% 29.71 in 10.0 mi NW 12.7 mph 19.6 mph 0.00 in Rain Light Rain
8:53 PM 39.9 °F 32.5 °F 28.0 °F 63% 29.73 in 10.0 mi NW 12.7 mph - 0.00 in   Overcast
9:53 PM 39.0 °F 29.0 °F 18.0 °F 43% 29.78 in 10.0 mi NW 20.7 mph 31.1 mph N/A   Clear
10:53 PM 37.0 °F 29.3 °F 16.0 °F 42% 29.80 in 10.0 mi NW 11.5 mph 20.7 mph N/A   Clear
11:53 PM 36.0 °F 26.7 °F 15.1 °F 43% 29.81 in 10.0 mi NW 15.0 mph - N/A   Clear